Wind_Speed
27 27 27 26 26 25 25 26 27 28 28 28 29 29 29 30 31 31 32 34 35 36 38 39 40 41 42 43 43 43 44 45 45 45 45 45 45 45 45 45 45 45 45
28 28 28 28 28 28 28 28 29 29 30 30 30 30 31 32 33 34 36 37 38 40 41 42 43 44 44 45 45 46 46 47 47 48 48 48 48 48 48 49 49 49 50
29 29 29 30 30 30 30 30 31 31 32 32 32 33 33 34 36 37 39 40 42 43 44 45 45 46 46 47 47 48 49 49 50 51 52 52 53 53 53 53 54 54 54
31 30 31 31 31 31 31 32 33 33 34 34 34 35 36 37 38 39 41 43 44 45 46 46 47 48 48 49 50 51 52 52 53 54 55 56 57 58 58 58 59 59 59
33 32 32 32 32 32 32 33 34 34 35 36 37 38 38 39 40 42 44 45 46 47 48 49 49 50 51 52 53 54 55 56 57 59 60 61 61 62 63 63 63 64 64
34 34 33 33 33 33 34 35 35 36 37 39 40 40 41 42 43 45 46 48 49 50 51 52 52 53 54 56 57 58 59 60 62 63 64 64 65 66 66 67 67 68 68
34 34 34 34 34 35 35 36 37 38 39 41 42 43 44 45 46 47 49 50 51 52 54 55 56 57 58 59 60 62 63 64 65 66 67 68 69 69 70 70 71 71 72
35 35 35 35 36 36 37 37 38 39 41 42 43 45 47 47 48 49 51 53 54 55 57 58 59 60 62 63 64 65 66 68 69 70 71 71 72 73 74 75 76 76 77
36 36 36 37 37 38 38 39 40 41 43 43 45 46 48 49 49 50 53 55 56 58 59 61 62 64 66 67 68 69 69 71 72 73 74 75 77 78 79 81 82 83 84
37 37 37 38 38 39 39 41 42 43 44 45 47 48 50 51 52 52 53 55 57 59 61 63 65 67 69 70 71 71 72 74 75 76 78 80 82 84 85 87 89 90 91
37 38 38 38 39 40 41 42 43 45 46 47 49 50 52 54 56 57 56 56 58 60 62 64 66 68 69 71 72 73 75 76 78 81 83 85 88 90 93 95 97 99 100
37 38 38 39 40 41 42 43 44 46 48 49 51 53 54 56 58 60 60 61 61 62 64 65 67 68 70 72 74 76 78 80 83 86 89 92 95 98 100 103 105 107 108
37 38 39 39 40 41 42 44 45 47 49 51 53 55 57 59 60 62 64 65 66 67 68 68 69 71 72 75 77 80 83 87 90 94 97 99 101 103 104 105 106 107 108
38 39 39 40 41 42 43 45 47 50 52 53 55 57 59 61 63 65 67 69 69 69 70 72 74 76 78 81 84 87 90 94 98 100 101 101 100 98 97 95 95 95 96
38 39 40 40 41 42 44 46 49 51 53 55 57 59 61 63 65 68 69 71 72 73 72 74 77 80 84 88 92 96 99 101 101 100 98 94 89 84 80 78 77 76 76
39 39 40 40 41 43 45 48 51 53 55 57 59 61 63 66 68 69 71 72 74 75 75 77 81 85 91 95 99 102 102 101 97 92 86 79 71 66 61 57 54 54 54
38 39 39 40 42 44 47 50 53 55 57 59 61 63 66 68 69 71 72 73 75 77 79 80 86 91 96 99 101 101 97 91 83 75 68 61 54 49 45 43 41 41 41
38 38 39 40 43 46 49 52 54 56 58 61 63 65 67 69 71 72 73 75 77 81 84 87 90 95 97 98 96 89 81 72 65 59 53 47 43 40 38 37 36 35 36
37 38 39 42 45 48 51 53 55 58 60 62 65 67 68 70 71 73 75 78 81 86 90 94 95 96 95 91 81 70 61 55 51 47 43 40 39 37 36 34 33 32 33
37 38 41 44 47 50 52 55 57 59 61 64 66 68 69 71 72 74 78 82 87 91 95 97 96 92 84 73 62 53 46 44 43 42 40 39 38 37 36 34 33 32 31
37 40 43 46 49 51 54 56 58 60 63 65 67 68 70 72 74 78 82 87 92 96 97 96 90 80 67 55 47 42 38 38 39 40 38 37 38 37 36 36 35 33 32
39 42 45 48 50 53 55 57 60 62 64 66 67 69 71 73 77 82 87 92 96 97 94 87 75 62 51 44 39 36 35 35 35 37 36 35 37 37 37 36 35 33 32
41 44 47 49 51 54 56 59 61 63 65 66 68 70 73 77 82 86 91 94 94 90 82 71 58 50 42 38 35 34 34 34 35 36 35 33 35 36 36 35 34 33 31
42 45 48 50 52 55 57 60 62 63 65 67 69 73 77 81 87 91 93 91 85 76 66 56 49 42 39 37 35 34 33 32 33 36 36 33 33 34 35 35 34 31 29
43 46 48 51 54 56 58 60 62 63 65 67 72 77 81 86 91 93 90 83 73 62 52 46 42 39 38 37 36 35 34 34 33 33 35 34 34 33 34 34 33 31 29
44 47 50 52 55 57 59 60 62 63 66 70 76 81 87 91 92 90 82 71 59 49 43 41 39 38 37 37 37 37 37 36 35 33 33 32 32 31 28 30 30 29 28
Wind_Direction
260 259 259 261 263 267 272 277 281 284 286 288 289 290 290 290 290 290 290 291 291 292 292 291 291 291 290 289 288 287 286 284 283 281 280 278 276 274 272 270 268 266 265
260 260 260 262 264 268 271 275 279 283 285 287 289 290 290 291 291 292 292 292 292 293 293 292 292 291 290 289 288 287 285 284 283 281 280 278 276 275 273 271 269 267 266
260 260 261 262 265 268 271 275 278 282 285 287 289 291 291 291 292 292 293 293 293 292 292 292 291 290 289 287 286 285 283 282 280 279 278 277 275 274 272 271 269 268 267
260 260 261 263 265 268 272 275 279 282 285 287 289 291 291 292 292 292 293 293 293 292 292 291 290 289 287 286 285 283 281 280 278 277 276 275 274 273 272 270 269 268 266
260 260 262 263 266 269 272 276 279 282 285 287 289 291 292 292 293 293 293 293 293 292 292 291 289 288 287 285 284 282 281 280 279 277 276 275 274 273 272 271 269 268 267
261 261 263 264 266 269 273 276 280 283 285 288 290 291 292 293 294 294 294 294 293 292 292 291 289 288 287 286 285 283 282 281 280 279 278 276 275 274 273 271 270 269 267
262 263 264 265 267 271 273 276 280 283 286 288 290 291 292 293 294 294 295 295 294 293 293 292 291 289 288 287 286 285 284 283 282 281 279 278 277 275 274 272 271 269 267
263 264 264 267 270 273 276 278 281 284 286 288 290 292 293 294 295 296 296 296 295 295 294 293 292 291 290 289 288 287 286 285 284 283 281 280 278 277 275 274 272 270 268
263 264 266 269 272 275 278 280 283 285 288 289 291 292 293 294 294 295 296 296 296 296 295 295 294 293 292 291 290 289 288 286 285 284 283 281 280 278 277 275 274 272 270
264 266 268 270 273 276 279 282 285 287 289 290 292 293 294 295 295 295 295 295 295 295 295 294 294 293 293 292 291 290 288 287 286 285 283 282 281 279 278 276 275 273 271
264 267 269 272 275 278 281 284 286 288 290 292 293 295 295 296 296 296 296 295 295 295 295 294 294 293 292 291 290 289 288 287 286 285 284 283 282 280 279 277 275 274 272
265 267 270 273 276 280 283 285 287 289 291 293 295 296 297 297 297 297 297 297 297 296 296 295 294 293 292 292 291 290 289 289 288 287 286 284 283 281 279 277 276 274 272
266 268 272 275 278 281 284 286 289 291 292 295 296 297 298 298 299 299 299 299 299 298 298 297 296 295 294 293 293 292 292 291 291 290 288 287 285 283 281 279 277 275 273
266 270 273 276 279 282 286 288 290 292 294 296 298 299 299 299 300 300 300 300 300 300 300 300 299 298 297 297 296 296 295 294 293 292 291 290 288 286 284 281 279 277 275
268 271 274 278 281 284 287 289 292 294 297 298 299 300 300 301 301 302 302 302 302 302 302 302 301 301 301 301 300 300 299 298 297 295 293 292 290 289 287 284 282 280 277
270 273 276 279 283 286 289 291 294 297 298 300 300 301 302 302 303 303 304 304 304 304 304 304 304 304 304 303 303 302 301 300 298 297 295 295 293 292 290 288 286 284 281
272 275 278 282 285 288 291 294 297 298 300 301 301 302 303 304 304 305 305 305 305 306 306 306 306 306 305 304 304 303 302 300 299 298 297 297 297 295 294 292 290 287 285
274 277 281 284 288 291 294 296 298 300 301 302 303 303 304 305 306 306 307 307 307 307 307 308 308 307 306 306 305 303 301 300 299 299 300 300 299 298 297 295 292 290 288
276 280 283 287 290 293 296 298 299 301 302 303 304 305 305 306 307 308 308 308 308 309 309 309 309 309 308 306 305 303 301 300 300 300 302 303 302 301 300 298 296 294 291
279 283 287 290 293 296 298 299 301 302 303 304 305 306 307 308 308 309 309 310 310 310 310 311 311 310 309 307 305 303 302 301 301 301 303 303 302 303 301 301 300 298 295
282 286 289 292 295 297 299 301 302 303 304 305 306 307 308 309 310 310 311 312 312 312 312 312 312 312 310 308 306 304 302 301 300 300 302 303 302 303 303 303 302 301 299
285 289 292 295 297 299 300 301 303 304 305 306 307 308 310 310 311 312 313 313 313 313 313 314 314 313 311 308 307 306 304 301 300 300 302 302 301 301 301 301 301 301 299
289 292 294 296 298 300 301 303 304 305 307 308 309 310 311 312 312 313 314 314 314 314 314 314 314 313 312 310 309 307 306 305 304 301 302 303 301 300 299 299 300 300 299
291 294 296 298 300 301 302 304 305 307 308 309 310 311 312 313 314 314 315 315 314 314 314 313 314 313 312 310 310 309 308 308 307 305 304 305 302 301 299 299 300 300 299
293 295 298 299 301 302 304 305 307 308 310 311 312 313 314 314 315 315 315 316 315 314 313 312 313 313 313 312 311 311 310 309 309 306 306 307 305 303 301 300 299 300 301
295 297 299 301 302 304 306 307 309 310 311 312 314 315 315 316 316 316 316 316 315 313 312 312 313 314 314 314 314 313 312 311 310 308 306 306 305 303 300 298 298 300 302
Height
5802 5802 5802 5802 5801 5801 5800 5799 5797 5796 5794 5792 5790 5788 5786 5783 5781 5779 5777 5775 5773 5771 5769 5767 5765 5762 5760 5758 5756 5754 5752 5750 5749 5748 5747 5746 5745 5744 5744 5744 5744 5744 5744
5796 5796 5796 5796 5795 5795 5794 5793 5791 5790 5788 5786 5784 5781 5779 5777 5775 5772 5770 5767 5765 5763 5760 5758 5755 5753 5751 5748 5746 5744 5742 5740 5738 5736 5735 5734 5733 5732 5732 5731 5731 5731 5732
5790 5790 5790 5790 5789 5788 5787 5786 5785 5783 5781 5779 5777 5775 5772 5770 5767 5764 5762 5759 5756 5754 5751 5748 5746 5743 5741 5738 5736 5733 5731 5729 5727 5725 5723 5721 5720 5720 5719 5718 5718 5718 5718
5784 5784 5784 5783 5782 5782 5781 5779 5778 5776 5774 5772 5770 5767 5765 5762 5759 5756 5753 5750 5747 5744 5741 5738 5736 5733 5730 5727 5725 5722 5719 5717 5715 5712 5710 5708 5707 5705 5704 5704 5703 5703 5703
5777 5777 5777 5776 5776 5775 5774 5773 5771 5769 5767 5764 5762 5759 5756 5753 5751 5747 5744 5741 5737 5734 5731 5728 5725 5722 5719 5715 5712 5709 5706 5703 5701 5698 5696 5694 5692 5690 5689 5688 5687 5686 5686
5770 5770 5770 5769 5769 5768 5767 5765 5764 5761 5759 5756 5753 5751 5747 5744 5741 5738 5734 5730 5727 5723 5719 5716 5713 5709 5706 5702 5699 5695 5692 5688 5685 5682 5680 5677 5675 5673 5671 5670 5669 5668 5667
5763 5763 5763 5762 5762 5761 5760 5758 5756 5754 5751 5748 5745 5742 5739 5735 5731 5727 5723 5720 5716 5711 5707 5703 5699 5695 5692 5688 5684 5680 5676 5672 5668 5665 5662 5659 5656 5654 5652 5650 5649 5648 5647
5756 5756 5756 5755 5754 5753 5752 5750 5748 5746 5743 5740 5736 5733 5729 5726 5722 5717 5712 5708 5703 5699 5694 5689 5684 5680 5676 5672 5668 5663 5659 5654 5650 5646 5642 5639 5636 5633 5630 5628 5627 5625 5624
5749 5749 5748 5747 5746 5745 5743 5741 5739 5737 5734 5731 5727 5724 5720 5716 5712 5708 5702 5696 5691 5685 5680 5675 5669 5664 5659 5654 5650 5645 5640 5635 5631 5626 5622 5617 5614 5610 5607 5604 5602 5600 5599
5742 5741 5741 5739 5738 5737 5735 5733 5730 5727 5724 5721 5717 5713 5709 5704 5701 5698 5694 5687 5680 5674 5668 5661 5654 5648 5642 5637 5632 5626 5621 5616 5610 5605 5600 5595 5590 5586 5581 5578 5574 5572 5570
5735 5734 5733 5732 5730 5728 5726 5724 5721 5717 5714 5710 5706 5702 5698 5693 5688 5684 5681 5675 5669 5662 5655 5648 5640 5632 5625 5619 5614 5608 5602 5596 5590 5583 5577 5571 5565 5559 5553 5548 5543 5540 5537
5727 5726 5725 5723 5722 5719 5717 5714 5711 5707 5704 5700 5695 5690 5686 5681 5675 5670 5665 5660 5655 5648 5641 5633 5624 5616 5608 5601 5595 5588 5581 5574 5566 5558 5551 5543 5535 5527 5520 5514 5508 5503 5499
5719 5718 5717 5715 5713 5711 5708 5705 5701 5697 5693 5689 5684 5679 5673 5668 5662 5655 5649 5643 5638 5631 5623 5615 5606 5598 5589 5581 5573 5565 5557 5548 5538 5529 5519 5509 5499 5490 5482 5474 5467 5461 5457
5712 5710 5709 5707 5704 5701 5698 5695 5691 5687 5682 5677 5672 5666 5660 5654 5647 5640 5633 5626 5620 5615 5605 5596 5585 5575 5565 5557 5548 5538 5529 5518 5507 5495 5484 5472 5461 5451 5442 5434 5427 5421 5416
5704 5702 5700 5698 5695 5692 5689 5685 5680 5676 5671 5666 5660 5653 5647 5640 5633 5625 5617 5608 5601 5594 5589 5578 5565 5553 5541 5530 5518 5507 5496 5485 5472 5459 5447 5437 5426 5417 5407 5399 5393 5387 5382
5695 5694 5691 5689 5686 5682 5679 5674 5670 5665 5659 5653 5647 5640 5633 5625 5617 5609 5600 5591 5582 5573 5567 5559 5545 5532 5517 5503 5489 5475 5463 5450 5438 5425 5415 5406 5397 5389 5381 5374 5368 5363 5359
5687 5685 5682 5680 5676 5673 5668 5664 5659 5653 5647 5641 5634 5626 5618 5610 5601 5592 5583 5574 5564 5554 5546 5540 5525 5511 5495 5478 5463 5447 5431 5419 5409 5399 5390 5383 5376 5370 5364 5359 5354 5349 5345
5678 5676 5674 5671 5667 5663 5658 5653 5648 5641 5635 5628 5620 5612 5603 5594 5585 5576 5566 5556 5546 5535 5524 5516 5505 5487 5471 5452 5437 5421 5407 5395 5387 5380 5373 5368 5362 5357 5352 5347 5342 5338 5334
5670 5668 5665 5661 5657 5653 5648 5642 5636 5629 5622 5614 5606 5598 5588 5579 5570 5560 5549 5538 5527 5515 5502 5490 5479 5462 5445 5426 5413 5400 5389 5379 5372 5366 5361 5356 5350 5345 5340 5336 5332 5328 5324
5662 5659 5656 5652 5647 5642 5637 5631 5624 5617 5609 5601 5592 5583 5573 5563 5553 5543 5532 5520 5507 5494 5479 5464 5451 5436 5420 5404 5392 5384 5377 5368 5361 5355 5351 5346 5340 5335 5330 5325 5321 5318 5314
5653 5650 5646 5642 5637 5631 5625 5619 5612 5604 5596 5587 5577 5568 5558 5547 5536 5525 5513 5499 5484 5469 5454 5439 5425 5411 5399 5388 5379 5371 5366 5359 5352 5346 5342 5336 5330 5325 5320 5315 5311 5307 5303
5644 5641 5637 5632 5626 5620 5614 5607 5599 5591 5582 5573 5563 5553 5543 5532 5521 5508 5494 5478 5460 5444 5429 5416 5403 5392 5383 5375 5368 5362 5356 5351 5345 5338 5333 5328 5321 5316 5311 5306 5302 5297 5293
5635 5631 5627 5621 5615 5609 5602 5594 5586 5577 5568 5558 5548 5538 5528 5516 5503 5490 5475 5459 5440 5422 5407 5396 5388 5379 5371 5365 5359 5354 5347 5341 5335 5328 5324 5320 5313 5307 5301 5296 5292 5288 5283
5626 5622 5616 5610 5604 5597 5590 5582 5573 5564 5554 5544 5533 5522 5511 5498 5483 5470 5456 5440 5422 5406 5393 5383 5376 5368 5361 5355 5350 5344 5338 5333 5327 5319 5313 5310 5304 5298 5292 5286 5281 5277 5273
5617 5612 5606 5599 5592 5585 5577 5568 5560 5551 5541 5530 5519 5506 5493 5480 5465 5450 5435 5420 5405 5392 5380 5372 5366 5359 5352 5346 5340 5335 5329 5324 5319 5312 5304 5300 5294 5289 5283 5277 5272 5267 5264
5607 5601 5595 5588 5581 5573 5564 5555 5546 5537 5528 5518 5504 5490 5475 5460 5444 5427 5414 5402 5391 5381 5372 5364 5357 5350 5344 5337 5331 5325 5319 5314 5308 5304 5297 5292 5285 5280 5277 5270 5264 5259 5255